TimeMDT,TemperatureF,Dew PointF,Humidity,Sea Level PressureIn,VisibilityMPH,Wind Direction,Wind SpeedMPH,Gust SpeedMPH,PrecipitationIn,Events,Conditions,WindDirDegrees,DateUTC
12:53 AM,75.0,34.0,22,29.81,10.0,SSE,4.6,-,N/A,,Clear,160,2013-07-30 06:53:00
1:53 AM,72.0,37.0,28,29.83,10.0,SSW,4.6,-,N/A,,Clear,200,2013-07-30 07:53:00
2:53 AM,71.1,37.9,30,29.85,10.0,SSE,3.5,-,N/A,,Clear,150,2013-07-30 08:53:00
3:53 AM,66.0,37.0,34,29.86,10.0,SE,8.1,-,N/A,,Clear,140,2013-07-30 09:53:00
4:53 AM,66.9,36.0,32,29.87,10.0,SE,11.5,-,N/A,,Clear,140,2013-07-30 10:53:00
5:53 AM,66.0,36.0,33,29.89,10.0,SE,9.2,-,N/A,,Clear,130,2013-07-30 11:53:00
6:53 AM,68.0,35.1,30,29.93,10.0,SE,8.1,-,N/A,,Clear,140,2013-07-30 12:53:00
7:53 AM,68.0,36.0,31,29.96,10.0,ESE,8.1,-,N/A,,Clear,120,2013-07-30 13:53:00
8:53 AM,73.9,36.0,25,29.97,10.0,SE,8.1,-,N/A,,Clear,140,2013-07-30 14:53:00
9:53 AM,80.1,32.0,17,29.99,10.0,Calm,Calm,-,N/A,,Clear,0,2013-07-30 15:53:00
10:53 AM,82.9,33.1,17,29.99,10.0,Calm,Calm,-,N/A,,Clear,0,2013-07-30 16:53:00
11:53 AM,84.9,32.0,15,30.00,10.0,WNW,6.9,-,N/A,,Clear,300,2013-07-30 17:53:00
12:53 PM,88.0,33.1,14,30.00,10.0,NW,8.1,-,N/A,,Clear,320,2013-07-30 18:53:00
1:53 PM,88.0,32.0,14,30.00,10.0,WNW,8.1,-,N/A,,Clear,300,2013-07-30 19:53:00
2:53 PM,91.0,32.0,12,29.98,10.0,Variable,4.6,-,N/A,,Clear,0,2013-07-30 20:53:00
3:53 PM,93.0,32.0,12,29.96,10.0,NNW,11.5,18.4,N/A,,Clear,340,2013-07-30 21:53:00
4:53 PM,93.0,30.0,11,29.94,10.0,NNW,13.8,17.3,N/A,,Clear,340,2013-07-30 22:53:00
5:53 PM,93.9,25.0,8,29.92,10.0,NNW,15.0,20.7,N/A,,Clear,340,2013-07-30 23:53:00
6:53 PM,93.9,24.1,8,29.91,10.0,North,9.2,-,N/A,,Clear,350,2013-07-31 00:53:00
7:53 PM,93.0,24.1,8,29.90,10.0,North,11.5,-,N/A,,Clear,360,2013-07-31 01:53:00
8:53 PM,88.0,24.1,10,29.91,10.0,North,5.8,-,N/A,,Clear,10,2013-07-31 02:53:00
9:53 PM,84.9,21.9,10,29.91,10.0,NE,5.8,-,N/A,,Clear,50,2013-07-31 03:53:00
10:53 PM,78.1,25.0,14,29.93,10.0,SE,3.5,-,N/A,,Clear,130,2013-07-31 04:53:00
11:53 PM,77.0,25.0,15,29.93,10.0,SE,9.2,-,N/A,,Clear,140,2013-07-31 05:53:00